星链-37747(STARLINK-37747)

导读

目前公开可查询的信息中,暂未检索到STARLINK-37747(NORAD 69440)的专属详细参数。可确定的是其为美国太空探索技术公司(SpaceX)星链低轨通信星座的组成卫星,星链卫星常规由猎鹰9号火箭批量发射,工作在500-550公里高度的近地轨道,核心功能是为全球提供低延迟宽带互联网接入,部分新一代星链卫星还支持手机直连通信服务,可实现偏远地区的网络覆盖与应急通信保障。

Basic Information
目录编号:
69440
目录名称:
STARLINK-37747
国际标识:
2026-126W
轨道中心:
EARTH
卫星名称:
星链-37747
卫星全名:
星链-37747(STARLINK-37747)
卫星状态:
在轨 (已飞行89 天)
发射日期:
2026-06-07 UTC
国别 :
美国 (US)
星等 :
--
Orbit Information
数据来源 国际轨道数据
星历时间: 2026-09-04T04:00:47+0800
10小时前
查看轨道信息
半长轴: 6843.683km
偏心率: 0.0001782
轨道倾角: 97.285°
近地点辐角 87.300°
升交点赤经 108.358°
平近点角 272.845°
近地点: 464.326km
远地点: 466.766km
周期: 93.906分钟
每日圈数: 15.334443
Detailed Information
固有亮度:
5
最大亮度:
2.5
卫星平台:
Starlink V1.0
覆盖范围:
全球
运营商:
太空探索技术公司
运营商所在国:
美国
制造商(研发单位):
太空探索技术公司
制造商所在国:
美国
使用方式:
暂无
Satellite Introduction
Starlink 计划是 SpaceX 推出的全球卫星互联网项目,通过发射低轨道卫星,为全球尤其是偏远地区提供高速、低延迟的互联网服务。自 2019 年起,Starlink 已部署数千颗卫星,旨在缩小全球数字鸿沟,推动互联网普及。该项目还为军事、航空等行业提供通信支持,带来广泛经济效益。
2D Orbit Map
3D Orbit Map
Orbit Altitude Analysis Chart
Orbit Inclination Analysis Chart
Orbit Comprehensive Analysis Chart
View Comprehensive Chart
Conjunction Data List
Event ID Objects TCA Miss Dist (km) Collision Risk Probability Collision Risk Index (CRI) Action
CDM_260904-092804-868706-944021
2026-09-04T
09:28:05+0000
2.500 km
极远距离
1.731992E-6 低风险 0.4
CDM_260904-220105-247106-944021
2026-09-04T
22:01:40+0000
2.546 km
极远距离
1.661039E-6 低风险 0.39
CDM_260905-055404-832106-944021
2026-09-05T
05:54:13+0000
2.498 km
极远距离
1.650867E-6 低风险 0.39
CDM_260904-092804-737706-944021
2026-09-04T
09:28:25+0000
2.647 km
极远距离
1.570577E-6 低风险 0.39